Terminal Aerodrome Forecast
Issued by NWS Omaha/Valley, NE

Home | Current Version | Previous Version | Text Only | Print | Product List | Glossary On
Versions: 1 2 3 4 5 6 7 8 9 10 11 12 13 14 15 16 17 18 19 20 21 22 23 24 25 26 27 28 29 30 31 32 33 34 35 36 37 38 39 40 41 42 43 44 45 46
000
FTUS43 KOAX 031900 AAA
TAFLNK
TAF AMD
KLNK 031900Z 0319/0418 20014G19KT P6SM BKN250
      TEMPO 0319/0322 3SM TSRA BKN040CB
     FM032200 21008KT P6SM SCT250
      TEMPO 0322/0402 3SM TSRA BKN035CB
     FM040300 07008KT P6SM BKN250
     FM040600 04010KT P6SM BKN030=

USA.gov is the U.S. government's official web portal to all federal, state and local government web resources and services.